Weather History for KCMX - November, 2013

Change the Weather History Date:

Saturday, November 30, 2013

  Actual Average Record
Temperature  
Mean Temperature 26 °F -  
Max Temperature 30 °F 31 °F 55 °F (1998)
Min Temperature 23 °F 18 °F 1 °F (1964)
Degree Days  
Heating Degree Days 38    
Moisture  
Dew Point 21 °F    
Average Humidity 80    
Maximum Humidity 88    
Minimum Humidity 69    
Precipitation  
Precipitation 0.00 in - - ()
Sea Level Pressure  
Sea Level Pressure 30.11 in    
Wind  
Wind Speed 5 mph (WSW)    
Max Wind Speed 9 mph    
Max Gust Speed -    
Visibility 6 miles    
Events Snow    
Averages and records for this station are not official NWS values.
T = Trace of Precipitation, MM = Missing Value Source: NWS Daily Summary

Daily Weather History Graph

Daily Weather History Graph

Search for Another Location

Airport or City:

Trip Planner

Search our weather history database for the weather conditions in past years. The results will help you decide how hot, cold, wet, or windy it might be!

Date:

Astronomy

Nov. 30, 2013 Rise Set
Actual Time 8:18 AM EST 5:06 PM EST
Civil Twilight 7:43 AM EST 5:41 PM EST
Nautical Twilight 7:05 AM EST 6:19 PM EST
Astronomical Twilight 6:28 AM EST 6:56 PM EST
Moon 5:20 AM EST (11/30) 3:38 PM EST (11/30)
Length of Visible Light 9h 57m
Length of Day
8h 47m
Waning Crescent, 7% of the Moon is Illuminated
Nov 30
Waning Crescent
Dec 2
New
Dec 9
First Quarter
Dec 17
Full
Dec 25
Last Quarter

Hourly Weather History & Observations

Time (EST) Temp. Windchill Dew Point Humidity Pressure Visibility Wind Dir Wind Speed Gust Speed Precip Events Conditions
12:53 AM 24.1 °F 16.0 °F 15.1 °F 69% 30.27 in 10.0 mi SSW 6.9 mph - N/A   Overcast
1:53 AM 24.1 °F 15.2 °F 16.0 °F 71% 30.23 in 10.0 mi South 8.1 mph - N/A   Overcast
2:14 AM 24.8 °F 16.1 °F 17.6 °F 74% 30.16 in 8.0 mi SSW 8.1 mph - N/A   Overcast
2:53 AM 23.0 °F 14.7 °F 19.9 °F 88% 30.19 in 3.0 mi South 6.9 mph - N/A   Overcast
3:07 AM 23.0 °F 14.7 °F 19.4 °F 86% 30.13 in 2.5 mi South 6.9 mph - 0.00 in Snow Light Snow
3:19 AM 23.0 °F 13.9 °F 19.4 °F 86% 30.12 in 2.5 mi South 8.1 mph - 0.00 in Snow Light Snow
3:27 AM 23.0 °F 14.7 °F 19.4 °F 86% 30.12 in 3.0 mi South 6.9 mph - 0.00 in Snow Light Snow
3:41 AM 23.0 °F 13.1 °F 19.4 °F 86% 30.11 in 4.0 mi South 9.2 mph - 0.00 in   Overcast
3:53 AM 23.0 °F 13.9 °F 19.9 °F 88% 30.16 in 2.5 mi SSW 8.1 mph - 0.00 in Snow Light Snow
4:12 AM 23.0 °F 15.8 °F 19.4 °F 86% 30.09 in 3.0 mi South 5.8 mph - 0.00 in Snow Light Snow
4:53 AM 24.1 °F - 19.9 °F 84% 30.14 in 6.0 mi Calm Calm - 0.00 in   Overcast
5:53 AM 24.1 °F 19.7 °F 19.0 °F 81% 30.12 in 8.0 mi SW 3.5 mph - N/A   Overcast
6:53 AM 25.0 °F - 19.0 °F 78% 30.10 in 9.0 mi Calm Calm - N/A   Overcast
7:53 AM 25.0 °F - 19.0 °F 78% 30.09 in 9.0 mi Calm Calm - N/A   Overcast
8:53 AM 25.0 °F - 19.0 °F 78% 30.09 in 8.0 mi Calm Calm - N/A   Overcast
9:53 AM 26.1 °F - 19.0 °F 75% 30.09 in 8.0 mi Calm Calm - N/A   Overcast
10:53 AM 27.0 °F - 19.9 °F 75% 30.08 in 8.0 mi Calm Calm - N/A   Overcast
11:53 AM 28.0 °F 24.2 °F 19.9 °F 72% 30.06 in 8.0 mi SSW 3.5 mph - N/A   Overcast
12:53 PM 30.0 °F - 21.0 °F 69% 30.05 in 9.0 mi Calm Calm - N/A   Overcast
1:53 PM 30.9 °F 27.5 °F 23.0 °F 72% 30.04 in 8.0 mi WSW 3.5 mph - N/A   Overcast
2:53 PM 30.9 °F 25.2 °F 23.0 °F 72% 30.04 in 8.0 mi WNW 5.8 mph - N/A   Overcast
3:53 PM 30.9 °F 26.2 °F 23.0 °F 72% 30.05 in 8.0 mi WNW 4.6 mph - N/A   Overcast
4:53 PM 30.9 °F - 24.1 °F 76% 30.06 in 8.0 mi Calm Calm - N/A   Overcast
5:53 PM 30.0 °F 24.1 °F 24.1 °F 79% 30.07 in 8.0 mi West 5.8 mph - N/A   Overcast
6:53 PM 30.0 °F 23.2 °F 25.0 °F 82% 30.09 in 6.0 mi NW 6.9 mph - N/A   Haze
7:27 PM 30.2 °F 25.4 °F 24.8 °F 80% 30.04 in 6.0 mi NNW 4.6 mph - N/A   Haze
7:53 PM 30.0 °F 26.5 °F 26.1 °F 85% 30.10 in 5.0 mi NNW 3.5 mph - N/A   Overcast
8:53 PM 30.9 °F 26.2 °F 27.0 °F 85% 30.10 in 4.0 mi NNE 4.6 mph - N/A   Overcast
9:07 PM 30.2 °F 26.7 °F 26.6 °F 86% 30.05 in 4.0 mi NNE 3.5 mph - N/A   Overcast
9:53 PM 30.0 °F 23.2 °F 26.1 °F 85% 30.11 in 5.0 mi NNE 6.9 mph - N/A   Overcast
10:53 PM 30.0 °F 25.2 °F 26.1 °F 85% 30.12 in 4.0 mi NNE 4.6 mph - N/A   Overcast
11:13 PM 30.2 °F - 24.8 °F 80% 30.07 in 7.0 mi Calm Calm - N/A   Overcast
11:53 PM 30.0 °F 26.5 °F 24.1 °F 79% 30.13 in 8.0 mi North 3.5 mph - N/A   Overcast